DW2047 Weather Reports


time (UTC)temp
F
wind
direction
speed
knots
gust
knots
rain 1hr
in
rain 24hr
in
rain mn
in
humidity
%
barometer
mb
20260508211557 79 131 1.7 0.0 0.00 0.00 0.01 73 1010.1
20260508211034 79 128 1.7 0.0 0.00 0.00 0.01 75 1010.1
20260508210505 78 133 0.9 0.0 0.00 0.00 0.01 77 1010.1
20260508210113 78 137 0.9 0.0 0.00 0.00 0.01 74 1010.3
20260508205538 78 82 0.9 0.0 0.00 0.00 0.01 74 1010.5
20260508205013 78 76 1.7 0.0 0.00 0.00 0.01 75 1010.6
20260508204606 78 75 1.7 0.0 0.00 0.00 0.01 76 1010.5
20260508204033 77 66 1.7 0.0 0.00 0.00 0.01 76 1010.6
20260508203503 77 86 1.7 0.0 0.00 0.00 0.01 75 1010.7
20260508203009 77 67 2.6 0.0 0.00 0.00 0.01 74 1010.9
20260508202547 78 138 1.7 0.0 0.00 0.00 0.01 74 1010.9
20260508202016 77 58 1.7 0.0 0.00 0.00 0.01 76 1011.0
20260508201525 77 60 2.6 0.0 0.00 0.00 0.01 76 1011.0
20260508201059 77 50 2.6 0.0 0.00 0.00 0.01 74 1011.0
20260508200529 77 55 2.6 0.0 0.00 0.00 0.01 76 1011.1
20260508200036 77 143 1.7 0.0 0.00 0.00 0.01 76 1011.2
20260508195506 77 98 0.9 0.0 0.00 0.00 0.01 76 1011.3
20260508195045 76 138 0.9 0.0 0.00 0.00 0.01 77 1011.3
20260508194618 76 182 1.7 0.0 0.00 0.00 0.01 75 1011.4
20260508194029 76 72 1.7 0.0 0.00 0.00 0.01 77 1011.5
20260508193502 76 135 1.7 0.0 0.00 0.00 0.01 77 1011.7
20260508193014 76 142 1.7 0.0 0.00 0.00 0.01 76 1011.6
20260508192546 75 59 1.7 0.0 0.00 0.00 0.01 77 1011.6
20260508192021 75 115 1.7 0.0 0.00 0.00 0.01 76 1011.6
20260508191525 75 155 1.7 0.0 0.00 0.00 0.01 77 1011.8
20260508191105 76 156 0.9 0.0 0.00 0.00 0.01 75 1011.9
20260508190541 75 129 1.7 0.0 0.00 0.00 0.01 77 1011.9
20260508190046 75 52 1.7 0.0 0.00 0.00 0.01 76 1012.0
20260508185516 75 73 0.9 0.0 0.00 0.00 0.01 78 1012.0
20260508185057 74 84 0.9 0.0 0.00 0.00 0.01 78 1012.1
20260508184541 74 71 0.9 0.0 0.00 0.00 0.01 79 1012.2
20260508184015 74 71 0.9 0.0 0.00 0.00 0.01 78 1012.3
20260508183550 74 62 0.9 0.0 0.00 0.00 0.01 79 1012.3
20260508183056 73 74 0.9 0.0 0.00 0.00 0.01 80 1012.3
20260508182529 73 78 0.9 0.0 0.00 0.00 0.01 79 1012.4
20260508182104 73 71 0.0 0.0 0.00 0.00 0.01 80 1012.5
20260508181504 73 71 0.9 0.0 0.00 0.00 0.01 79 1012.6
20260508181039 73 71 1.7 0.0 0.00 0.00 0.01 78 1012.6
20260508180512 73 71 0.9 0.0 0.00 0.00 0.01 80 1012.7
20260508180014 72 278 0.9 0.0 0.00 0.00 0.01 80 1012.7
20260508175553 72 278 0.9 0.0 0.00 0.00 0.01 80 1012.7
20260508175029 72 272 0.9 0.0 0.00 0.00 0.01 79 1012.7
20260508174526 72 66 0.9 0.0 0.00 0.00 0.01 80 1012.8
20260508174105 72 154 0.9 0.0 0.00 0.00 0.01 80 1012.8
20260508173542 72 78 0.9 0.0 0.00 0.00 0.01 82 1012.8
20260508173039 71 98 0.9 0.0 0.00 0.00 0.01 81 1012.9
20260508172505 71 70 0.9 0.0 0.00 0.00 0.01 82 1013.0
20260508172043 70 40 0.9 0.0 0.00 0.00 0.01 81 1013.1
20260508171546 70 165 0.9 0.0 0.00 0.00 0.01 83 1013.1
20260508171022 69 166 0.9 0.0 0.00 0.00 0.01 83 1013.1
20260508170601 69 166 0.9 0.0 0.00 0.00 0.01 82 1013.3
20260508170106 69 166 0.0 0.0 0.00 0.00 0.01 82 1013.5
20260508165538 69 166 0.0 0.0 0.00 0.00 0.01 82 1013.7
20260508165009 69 166 0.0 0.0 0.00 0.00 0.01 83 1013.8
20260508164517 68 166 0.9 0.0 0.00 0.00 0.01 81 1013.8
20260508164050 69 166 0.9 0.0 0.00 0.00 0.01 81 1014.0
20260508163523 68 166 0.0 0.0 0.00 0.00 0.01 83 1013.8
20260508163026 68 152 0.0 0.0 0.00 0.00 0.01 83 1013.9
20260508162602 68 152 0.0 0.0 0.00 0.00 0.01 83 1014.0
20260508162034 68 152 0.0 0.0 0.00 0.00 0.01 83 1014.0
20260508161542 67 152 0.0 0.0 0.00 0.00 0.01 83 1014.1
20260508161016 67 152 0.9 0.0 0.00 0.00 0.01 83 1014.1
20260508160552 67 152 0.9 0.0 0.00 0.00 0.01 84 1014.1
20260508160058 67 152 0.9 0.0 0.00 0.00 0.01 83 1014.2
20260508155533 67 152 0.9 0.0 0.00 0.00 0.01 84 1014.3
20260508155002 66 152 0.9 0.0 0.00 0.00 0.01 83 1014.3
20260508154503 67 152 0.9 0.0 0.00 0.00 0.01 83 1014.4
20260508154039 66 152 0.9 0.0 0.00 0.00 0.01 83 1014.4
20260508153513 66 152 0.9 0.0 0.00 0.00 0.01 84 1014.5
20260508153104 66 152 0.9 0.0 0.00 0.00 0.01 83 1014.4
20260508152537 66 152 1.7 0.0 0.00 0.00 0.01 83 1014.3
20260508152009 67 152 0.9 0.0 0.00 0.00 0.01 84 1014.3
20260508151609 66 151 0.9 0.0 0.00 0.00 0.01 84 1014.3
20260508151036 66 152 1.7 0.0 0.00 0.00 0.01 84 1014.3
20260508150510 66 152 1.7 0.0 0.00 0.00 0.01 83 1014.3
20260508150013 66 152 1.7 0.0 0.00 0.00 0.01 83 1014.3
20260508145550 66 152 1.7 0.0 0.00 0.00 0.01 84 1014.3
20260508145023 66 152 0.9 0.0 0.00 0.00 0.01 84 1014.3
20260508144525 65 153 0.9 0.0 0.00 0.00 0.01 85 1014.3
20260508144104 65 153 0.9 0.0 0.00 0.00 0.01 84 1014.3
20260508143537 65 153 0.0 0.0 0.00 0.00 0.01 85 1014.2
20260508143029 65 153 0.0 0.0 0.00 0.00 0.01 85 1014.3
20260508142502 65 153 0.9 0.0 0.00 0.00 0.01 86 1014.3
20260508142042 65 153 0.9 0.0 0.00 0.00 0.01 86 1014.4
20260508141547 64 153 0.9 0.0 0.00 0.00 0.01 87 1014.4
20260508141019 64 153 0.9 0.0 0.00 0.00 0.01 86 1014.3
20260508140557 64 154 0.9 0.0 0.00 0.00 0.01 87 1014.4
20260508140044 64 155 0.9 0.0 0.00 0.00 0.01 88 1014.3
20260508135522 63 155 0.0 0.0 0.00 0.00 0.01 89 1014.1
20260508135059 63 163 0.0 0.0 0.00 0.00 0.01 90 1014.3
20260508134544 62 163 0.9 0.0 0.00 0.00 0.01 89 1014.4
20260508134020 62 163 0.9 0.0 0.00 0.00 0.01 89 1014.7
20260508133556 62 163 0.9 0.0 0.00 0.00 0.01 90 1014.7
20260508133121 62 163 0.0 0.0 0.00 0.00 0.01 90 1014.7
20260508132530 61 71 0.0 0.0 0.00 0.00 0.01 91 1014.6
20260508132106 61 71 0.0 0.0 0.00 0.00 0.01 91 1014.8
20260508131503 61 71 0.0 0.0 0.00 0.00 0.01 91 1014.9
20260508131042 60 71 0.0 0.0 0.00 0.00 0.01 91 1014.9
20260508130511 60 71 0.0 0.0 0.00 0.00 0.01 91 1014.8
20260508130021 60 71 0.0 0.0 0.00 0.00 0.01 91 1014.7
20260508125552 60 71 0.0 0.0 0.00 0.00 0.01 91 1014.8
20260508125025 60 71 0.0 0.0 0.00 0.00 0.01 91 1014.7
20260508124526 60 71 0.0 0.0 0.00 0.00 0.01 92 1014.7
20260508124106 60 71 0.0 0.0 0.00 0.00 0.01 92 1014.7
20260508123535 60 71 0.0 0.0 0.00 0.00 0.01 92 1014.8
20260508123053 60 71 0.0 0.0 0.00 0.00 0.01 92 1014.8
20260508122511 60 71 0.0 0.0 0.00 0.00 0.01 92 1014.8
20260508122049 59 71 0.0 0.0 0.00 0.00 0.01 92 1014.8
20260508121558 59 71 0.0 0.0 0.00 0.00 0.01 92 1014.9
20260508121030 59 71 0.0 0.0 0.00 0.00 0.01 92 1015.0
20260508120606 59 71 0.0 0.0 0.00 0.00 0.01 92 1015.1
20260508120003 59 71 0.0 0.0 0.00 0.00 0.01 92 1015.0
20260508115543 59 71 0.0 0.0 0.00 0.00 0.01 92 1015.0
20260508115012 59 71 0.0 0.0 0.00 0.00 0.01 92 1015.1
20260508114517 59 71 0.0 0.0 0.00 0.00 0.01 92 1015.4
20260508114052 59 71 0.0 0.0 0.00 0.00 0.01 92 1015.6
20260508113525 59 71 0.0 0.0 0.00 0.00 0.01 92 1015.5
20260508113028 59 71 0.0 0.0 0.00 0.00 0.01 92 1015.4
20260508112606 59 71 0.0 0.0 0.00 0.00 0.01 92 1015.4
20260508112036 59 71 0.0 0.0 0.00 0.00 0.01 92 1015.2
20260508111541 59 71 0.0 0.0 0.00 0.00 0.01 92 1015.1
20260508111011 59 71 0.0 0.0 0.00 0.00 0.01 92 1015.2
20260508110550 59 71 0.0 0.0 0.00 0.00 0.01 92 1015.1
20260508110043 59 71 0.0 0.0 0.00 0.00 0.01 92 1015.1
20260508105506 59 71 0.0 0.0 0.00 0.00 0.01 92 1015.1
20260508105044 59 71 0.0 0.0 0.00 0.00 0.01 92 1015.0
20260508104553 60 71 0.0 0.0 0.00 0.00 0.01 92 1015.0
20260508104029 60 71 0.0 0.0 0.00 0.00 0.01 91 1015.0
20260508103606 60 71 0.0 0.0 0.00 0.00 0.01 91 1015.2
20260508103013 60 71 0.0 0.0 0.00 0.00 0.01 91 1015.4
20260508102539 60 71 0.0 0.0 0.00 0.00 0.01 91 1015.5
20260508102012 60 71 0.0 0.0 0.00 0.00 0.01 91 1015.4
20260508101516 60 71 0.0 0.0 0.00 0.00 0.01 91 1015.4
20260508101059 60 71 0.0 0.0 0.00 0.00 0.01 91 1015.7
20260508100528 60 71 0.0 0.0 0.00 0.00 0.01 90 1015.6
20260508100034 60 71 0.0 0.0 0.00 0.00 0.01 90 1015.8
20260508095508 60 71 0.0 0.0 0.00 0.00 0.01 90 1015.7
20260508095042 60 71 0.0 0.0 0.00 0.00 0.01 90 1015.7
20260508094532 60 71 0.9 0.0 0.00 0.00 0.01 89 1015.9
20260508094008 60 71 0.0 0.0 0.00 0.00 0.00 88 1016.1
20260508093544 60 71 0.0 0.0 0.00 0.00 0.00 88 1016.1
20260508093032 60 71 0.9 0.0 0.00 0.00 0.00 88 1016.0
20260508092504 60 71 0.9 0.0 0.00 0.00 0.00 88 1015.8
20260508092043 60 71 0.0 0.0 0.00 0.00 0.00 88 1015.7
20260508091533 60 71 0.0 0.0 0.00 0.00 0.00 88 1015.5
20260508091007 60 71 0.0 0.0 0.00 0.00 0.00 88 1015.4
20260508090546 60 71 0.0 0.0 0.00 0.00 0.00 88 1015.4
20260508090053 60 71 0.0 0.0 0.00 0.00 0.00 88 1015.4
20260508085523 60 71 0.0 0.0 0.00 0.00 0.00 88 1015.3
20260508085105 60 71 0.0 0.0 0.00 0.00 0.00 88 1015.2
20260508084505 60 71 0.0 0.0 0.00 0.00 0.00 89 1015.0
20260508084041 60 71 0.0 0.0 0.00 0.00 0.00 89 1015.1
20260508083513 60 71 0.0 0.0 0.00 0.00 0.00 89 1015.4
20260508083014 59 71 0.0 0.0 0.00 0.00 0.00 89 1015.4
20260508082550 59 71 0.0 0.0 0.00 0.00 0.00 89 1015.4
20260508082023 59 71 0.0 0.0 0.00 0.00 0.00 89 1015.1
20260508081531 59 71 0.0 0.0 0.00 0.00 0.00 90 1015.1
20260508081059 59 71 0.0 0.0 0.00 0.00 0.00 90 1015.1
20260508080533 59 71 0.0 0.0 0.00 0.00 0.00 90 1014.8
20260508080038 59 71 0.0 0.0 0.00 0.00 0.00 91 1015.0
20260508075511 58 71 0.0 0.0 0.00 0.00 0.00 91 1014.9
20260508075046 58 71 0.0 0.0 0.00 0.00 0.00 91 1014.9
20260508074536 58 71 0.0 0.0 0.00 0.00 0.00 91 1014.9
20260508074010 58 71 0.0 0.0 0.00 0.00 0.00 91 1014.9
20260508073546 58 71 0.0 0.0 0.00 0.00 0.00 91 1014.9
20260508073053 58 71 0.0 0.0 0.00 0.00 0.00 91 1015.2
20260508072524 58 71 0.0 0.0 0.00 0.00 0.00 91 1015.3
20260508072058 58 71 0.0 0.0 0.00 0.00 0.00 91 1015.3
20260508071603 58 71 0.0 0.0 0.00 0.00 0.00 91 1015.3
20260508071032 58 71 0.0 0.0 0.00 0.00 0.00 91 1015.4
20260508070507 58 71 0.0 0.0 0.00 0.00 0.00 91 1015.4
20260508070009 58 71 0.0 0.0 0.00 0.00 0.00 91 1015.7
20260508065544 58 71 0.0 0.0 0.00 0.00 0.00 91 1015.9
20260508065017 57 71 0.0 0.0 0.00 0.00 0.00 91 1016.0
20260508064521 57 71 0.0 0.0 0.00 0.00 0.00 91 1016.0
20260508064058 57 71 0.0 0.0 0.00 0.00 0.00 91 1016.1
20260508063529 57 71 0.0 0.0 0.00 0.00 0.00 91 1016.1
20260508063033 57 71 0.0 0.0 0.00 0.00 0.00 90 1016.1
20260508062507 58 71 0.0 0.0 0.00 0.00 0.00 90 1015.9
20260508062042 58 71 0.0 0.0 0.00 0.00 0.00 90 1016.0
20260508061544 58 71 0.0 0.0 0.00 0.00 0.00 90 1016.1
20260508061017 58 71 0.0 0.0 0.00 0.00 0.00 90 1016.3
20260508060553 58 71 0.0 0.0 0.00 0.00 0.00 90 1016.2
20260508060036 58 71 0.0 0.0 0.00 0.00 0.00 90 1016.2
20260508055509 58 71 0.0 0.0 0.00 0.00 0.00 90 1016.2
20260508055048 58 71 0.0 0.0 0.00 0.00 0.00 90 1016.2
20260508054554 58 71 0.0 0.0 0.00 0.00 0.00 90 1015.8
20260508054022 58 71 0.0 0.0 0.00 0.00 0.00 90 1015.8
20260508053601 58 71 0.0 0.0 0.00 0.00 0.00 90 1015.8
20260508053002 58 71 0.0 0.0 0.00 0.00 0.00 90 1016.0
20260508052536 58 71 0.0 0.0 0.00 0.00 0.00 90 1016.1
20260508052005 58 71 0.0 0.0 0.00 0.00 0.00 90 1016.0
20260508051520 58 71 0.0 0.0 0.00 0.00 0.00 90 1015.8
20260508051047 58 71 0.0 0.0 0.00 0.00 0.00 89 1016.0
20260508050524 58 71 0.0 0.0 0.00 0.00 0.00 89 1016.0
20260508050025 58 71 0.0 0.0 0.00 0.00 0.00 89 1016.3
20260508045603 59 71 0.0 0.0 0.00 0.00 0.00 89 1016.4
20260508045041 59 71 0.0 0.0 0.00 0.00 0.00 90 1016.1
20260508044559 59 71 0.0 0.0 0.00 0.00 0.00 89 1016.6
20260508044013 59 71 0.0 0.0 0.00 0.00 0.00 89 1016.6
20260508043555 59 71 0.0 0.0 0.00 0.00 0.00 89 1016.7
20260508043108 59 71 0.0 0.0 0.00 0.00 0.00 89 1016.3
20260508042529 59 71 0.0 0.0 0.00 0.00 0.00 89 1016.1
20260508042005 59 71 0.0 0.0 0.00 0.00 0.00 88 1016.2
20260508041506 59 71 0.0 0.0 0.00 0.00 0.00 88 1016.4
20260508041045 59 71 0.0 0.0 0.00 0.00 0.00 88 1016.4
20260508040521 59 71 0.0 0.0 0.00 0.00 0.00 87 1016.4
20260508040026 59 71 0.0 0.0 0.00 0.00 0.00 87 1016.6
20260508035602 60 71 0.0 0.0 0.00 0.00 0.00 86 1016.6
20260508035035 60 71 0.0 0.0 0.00 0.00 0.00 86 1016.7
20260508034543 60 71 0.0 0.0 0.00 0.00 0.00 86 1016.8
20260508034009 60 71 0.0 0.0 0.00 0.00 0.00 85 1016.8
20260508033545 60 71 0.0 0.0 0.00 0.00 0.00 85 1017.1
20260508033032 60 71 0.0 0.0 0.00 0.00 0.00 85 1016.9
20260508032502 60 71 0.9 0.0 0.00 0.00 0.00 85 1016.7
20260508032042 60 71 0.9 0.0 0.00 0.00 0.00 85 1016.6
20260508031528 60 71 0.0 0.0 0.00 0.00 0.00 85 1016.6
20260508031004 60 71 0.0 0.0 0.00 0.00 0.00 85 1016.9
20260508030543 60 71 0.0 0.0 0.00 0.00 0.00 85 1016.8
20260508030042 60 71 0.0 0.0 0.00 0.00 0.00 85 1016.1
20260508025505 60 71 0.0 0.0 0.00 0.00 0.00 85 1015.9
20260508025041 61 71 0.0 0.0 0.00 0.00 0.00 85 1015.6
20260508024552 61 71 0.0 0.0 0.00 0.00 0.00 84 1015.6
20260508024026 61 71 0.0 0.0 0.00 0.00 0.00 84 1015.7
20260508023501 61 71 0.0 0.0 0.00 0.00 0.00 84 1015.4
20260508023010 61 71 0.0 0.0 0.00 0.00 0.00 84 1015.1
20260508022543 61 71 0.0 0.0 0.00 0.00 0.00 83 1015.0
20260508022020 61 71 0.0 0.0 0.00 0.00 0.00 83 1015.0
20260508021526 61 71 0.0 0.0 0.00 0.00 0.00 83 1015.1
20260508021100 61 71 0.0 0.0 0.00 0.00 0.00 82 1015.0
20260508020530 61 71 0.0 0.0 0.00 0.00 0.00 83 1015.0
20260508020039 61 71 0.0 0.0 0.00 0.00 0.00 82 1015.0
20260508015508 62 71 0.0 0.0 0.00 0.00 0.00 82 1015.1
20260508015048 62 71 0.0 0.0 0.00 0.00 0.00 82 1014.9
20260508014550 62 71 0.0 0.0 0.00 0.00 0.00 81 1014.8
20260508014023 62 71 0.0 0.0 0.00 0.00 0.00 82 1014.9
20260508013605 62 71 0.0 0.0 0.00 0.00 0.00 81 1015.1
20260508013106 62 71 0.0 0.0 0.00 0.00 0.00 81 1015.1
20260508012540 62 71 0.0 0.0 0.00 0.00 0.00 81 1015.1
20260508012017 63 71 0.0 0.0 0.00 0.00 0.00 80 1015.0
20260508011525 63 71 0.0 0.0 0.00 0.00 0.00 79 1014.9
20260508011103 63 71 0.0 0.0 0.00 0.00 0.00 79 1015.0
20260508010535 63 71 0.0 0.0 0.00 0.00 0.00 78 1015.0
20260508010041 64 71 0.0 0.0 0.00 0.00 0.00 77 1015.3
20260508005513 64 71 0.0 0.0 0.00 0.00 0.00 76 1015.5
20260508005050 64 71 0.0 0.0 0.00 0.00 0.00 76 1015.4
20260508004557 64 71 0.0 0.0 0.00 0.00 0.00 75 1015.5
20260508004031 64 71 0.0 0.0 0.00 0.00 0.00 75 1015.7
20260508003504 65 71 0.0 0.0 0.00 0.00 0.00 74 1015.5
20260508003056 65 71 0.0 0.0 0.00 0.00 0.00 73 1015.8
20260508002529 65 71 0.0 0.0 0.00 0.00 0.00 72 1015.6
20260508002002 65 71 0.0 0.0 0.00 0.00 0.00 73 1015.8
20260508001557 65 71 0.9 0.0 0.00 0.00 0.00 72 1015.8
20260508001028 65 71 0.9 0.0 0.00 0.00 0.00 70 1016.1
20260508000503 65 71 0.9 0.0 0.00 0.00 0.00 70 1016.1
20260508000052 66 72 0.9 0.0 0.00 0.00 0.00 70 1016.1
20260507235528 66 333 0.0 0.0 0.00 0.00 0.00 71 1016.6
20260507235108 66 333 0.0 0.0 0.00 0.00 0.00 71 1016.6
20260507234603 66 333 0.0 0.0 0.00 0.00 0.00 71 1016.7
20260507234029 66 58 0.0 0.0 0.00 0.00 0.00 72 1016.8
20260507233507 66 58 0.0 0.0 0.00 0.00 0.00 71 1016.8
20260507233056 66 66 0.0 0.0 0.00 0.00 0.00 70 1016.7
20260507232525 66 66 0.0 0.0 0.00 0.00 0.00 70 1016.2
20260507232002 66 66 0.9 0.0 0.00 0.00 0.00 70 1015.7
20260507231558 66 66 0.9 0.0 0.00 0.00 0.00 70 1015.6
20260507231035 66 36 0.0 0.0 0.00 0.00 0.00 70 1016.1
20260507230509 66 36 0.0 0.0 0.00 0.00 0.00 70 1016.2
20260507230100 66 90 0.0 0.0 0.00 0.00 0.00 70 1016.2
20260507225531 66 90 0.0 0.0 0.00 0.00 0.00 70 1016.1
20260507225008 66 92 0.9 0.0 0.00 0.00 0.00 69 1016.4
20260507224518 66 92 0.9 0.0 0.00 0.00 0.00 70 1016.5
20260507224054 66 59 0.9 0.0 0.00 0.00 0.00 70 1016.8
20260507223527 66 140 0.0 0.0 0.00 0.00 0.00 70 1016.9
20260507223028 66 140 0.0 0.0 0.00 0.00 0.00 70 1016.8
20260507222605 66 140 0.9 0.0 0.00 0.00 0.00 70 1016.7
20260507222036 66 140 0.9 0.0 0.00 0.00 0.00 70 1016.7
20260507221541 66 65 0.9 0.0 0.00 0.00 0.00 69 1016.9
20260507221014 66 65 0.9 0.0 0.00 0.00 0.00 70 1016.6
20260507220552 65 63 0.9 0.0 0.00 0.00 0.00 71 1016.7
20260507220057 65 69 0.9 0.0 0.00 0.00 0.00 71 1016.7
20260507215534 65 15 0.9 0.0 0.00 0.00 0.00 71 1017.4
20260507215008 65 25 0.9 0.0 0.00 0.00 0.00 70 1017.6
20260507214508 65 321 0.9 0.0 0.00 0.00 0.00 72 1017.4
20260507214044 65 321 1.7 0.0 0.00 0.00 0.00 70 1017.7
20260507213523 65 321 0.9 0.0 0.00 0.00 0.00 71 1017.7
20260507213028 65 315 0.9 0.0 0.00 0.00 0.00 72 1017.5
20260507212606 65 315 0.9 0.0 0.00 0.00 0.00 70 1017.3
20260507212040 65 315 1.7 0.0 0.00 0.00 0.00 71 1017.2